Vertical_Velocity
-1 -1 -0 -0 -0 -0 -1 -0 -1 -1 -1 -1 -1 -1 -2 -3 -4 -2 -7 -2 -3 -0 -1 -1 0 1 0 -2 2 4 -5 -0 -4 1 -8 -1 2 -2 -3 -1 16 -9 6 5 5
-0 -1 -1 -1 -1 -1 -0 0 0 -0 0 1 1 1 -1 -3 -4 -2 0 -1 2 0 -2 -2 1 -1 -0 0 -0 -3 -2 -5 -4 -1 -2 -2 6 5 2 -3 -7 -3 -2 5 -1
-1 -1 -1 -2 -1 -1 -1 -0 -0 -1 -0 -1 -1 -0 -1 -3 -4 -1 -1 -1 -3 -1 -1 -1 1 -1 0 1 -1 0 -4 -2 -5 -1 5 0 -2 6 2 -1 -10 -1 -2 -0 2
-1 -0 -1 -1 -1 -1 -1 -1 -1 -0 1 0 -1 -2 -1 -1 -3 -0 1 0 -0 1 -0 -1 1 -2 1 -0 -1 1 -1 0 -7 -4 2 -1 1 -4 5 -12 0 -5 -7 -3 -0
-1 -1 -0 -1 -1 -2 -2 -1 -1 0 -0 1 -1 -1 -0 0 -13 3 4 1 3 1 1 -2 1 1 -0 0 -0 2 -2 1 -4 0 -0 7 -3 -6 -9 -4 5 10 19 -3 7
0 -1 -1 -1 -1 -2 -1 -2 -1 -0 0 0 -2 -1 -0 -3 -0 1 6 4 5 -0 1 2 1 5 0 -0 -1 -1 2 -3 -3 -5 0 6 -8 27 -15 -0 -10 17 0 2 -7
-0 -0 -1 -2 -1 -1 -1 -1 -2 -2 2 2 0 -1 -0 -16 1 8 5 4 4 2 -1 1 6 0 3 -2 1 2 -2 -3 -2 -3 -2 5 -4 -5 -11 5 -7 15 2 6 -5
-1 -1 -1 -1 -0 -1 0 0 -1 -0 2 1 0 -1 -13 4 4 -10 4 -8 -1 1 -8 -7 -4 4 -1 1 -6 -3 1 -1 -4 1 -3 3 -24 -11 -4 8 -4 12 -2 9 5
-1 -1 -1 -0 -1 -1 1 0 -0 1 3 1 1 0 -15 2 6 18 17 1 3 -1 1 8 11 -3 4 -2 -3 0 -2 1 -6 -1 -1 -0 -12 -9 -3 6 -3 1 2 2 8
-1 -1 0 1 -0 -1 -0 -1 1 0 1 -0 1 -3 -1 -0 1 -8 1 -0 9 6 11 7 12 1 1 -2 -4 -2 1 -1 -1 -1 3 -1 -8 -3 -11 8 -3 0 3 1 5
-1 -0 -1 -0 0 1 -7 -2 -5 -0 6 -4 7 -1 -8 -6 16 10 -6 -7 5 6 1 -4 6 -3 -5 -3 -3 2 4 1 -2 -4 5 -2 -1 -6 -5 3 1 1 1 3 -1
0 -1 -1 -1 1 2 0 -6 3 5 -11 10 1 3 8 17 -6 10 -5 -14 -1 1 -2 0 -3 -6 -0 2 2 3 2 -9 -10 -2 10 -2 -7 -5 -0 -6 1 -5 1 -4 13
-1 -2 -1 -2 0 0 -2 -1 2 -3 -2 -9 9 3 -2 -0 5 3 -15 1 3 1 -0 3 -11 2 7 1 8 -1 1 -2 -0 -4 -2 5 -6 -1 -7 0 2 2 -3 1 -7
-2 -2 -4 -1 2 -1 -2 -1 2 -1 -6 4 -6 3 -24 -1 -1 17 -3 12 -7 3 1 0 -4 4 3 -0 6 7 -4 2 2 10 -4 -5 -14 -3 -1 -4 1 1 2 -4 -1
-2 -2 -1 -7 -2 -5 -2 -2 -1 -1 -7 1 -3 14 4 -16 11 -21 1 -23 1 -2 11 -33 -1 -0 4 -8 4 -21 1 2 2 3 7 -2 5 -17 1 -2 -5 -2 -2 -2 3
-2 -1 1 -4 3 3 -2 -2 -1 -12 -8 -2 3 -2 -9 -7 -8 -7 -5 -6 14 2 -4 1 -4 10 -10 -5 1 -1 0 -0 1 5 11 -12 2 -8 -2 -7 -4 -3 4 -6 -2
-2 1 -3 -4 2 1 -3 -2 -15 -12 -7 -5 -1 -3 1 -3 -13 -1 -2 -4 -4 0 -3 -14 -4 -3 1 7 3 2 1 -0 5 9 -8 -2 5 -14 -4 -2 -3 -3 0 -2 -0
-1 3 1 9 2 0 -5 -14 -15 -1 1 -4 1 -3 4 2 -6 -3 -3 -1 -3 2 2 4 -21 6 -1 -8 -9 -6 -8 -1 -4 -1 -12 -0 -2 -21 -5 -3 -2 -0 2 5 8
4 4 -3 -3 -9 -1 -14 -9 -7 -0 1 2 -6 3 -5 -6 8 -0 1 0 -1 -0 4 3 -7 -10 2 -0 -3 3 3 -14 1 -2 0 -4 -2 3 -2 -4 -4 -4 1 4 0
-5 -1 -9 -2 -10 -5 -15 -2 -1 1 1 -0 6 4 2 -4 5 -1 -0 -5 -2 0 2 -4 -1 -1 -4 3 2 -6 -5 7 4 0 0 -2 -1 1 -5 -4 -4 -5 -0 4 7
-1 -8 4 -8 -11 -16 -5 1 -0 1 6 5 1 0 1 2 3 -1 -5 -11 0 -3 1 -0 4 -13 3 2 1 3 2 -2 2 -1 -4 -0 -2 6 4 3 2 -1 -3 7 -6
-5 -9 10 11 -32 1 -1 3 3 -2 -3 -1 5 3 2 0 0 0 -0 -0 2 -0 -0 -4 1 0 -4 -6 2 0 -1 -4 -4 -6 -1 -4 -1 2 2 2 3 -1 -1 2 2
-9 -2 -4 -10 -6 -2 -4 -1 4 -3 1 -2 -0 1 -1 1 -0 1 -0 -1 -1 -0 -1 -3 -4 -2 2 -3 -6 -1 -0 -1 -1 -2 1 -4 -7 -0 -3 -4 -2 2 -2 4 3
-5 -9 -4 -6 5 -2 0 -1 -4 -4 1 -0 0 1 1 -0 -2 -2 -1 -1 2 -1 1 1 0 2 5 1 0 -5 -2 -1 -4 -3 2 3 -2 -7 -3 0 -4 -7 7 3 5
-1 1 10 -5 -8 -2 -2 2 -1 -3 0 -1 -4 3 2 0 -2 -0 -1 -6 -6 2 -4 -2 1 2 -1 2 -8 5 2 1 -6 9 -3 4 2 3 4 6 6 12 2 -2 2
-7 -3 1 1 -3 -5 -1 -3 3 -6 4 -5 1 -1 1 2 2 -0 1 0 1 -5 0 -1 -2 -1 7 2 -4 -3 -0 -0 -0 -1 -2 -1 -1 8 1 -3 -6 -1 2 1 3
8 2 -9 6 -1 -4 4 0 -1 1 -4 9 6 3 0 -2 4 2 -6 -1 1 1 -0 2 1 -1 2 1 -2 -20 12 2 3 -0 7 1 5 -0 -2 -1 4 -2 4 3 3
Height
1521 1520 1519 1518 1518 1516 1515 1514 1512 1511 1510 1508 1506 1504 1502 1500 1498 1495 1492 1493 1493 1494 1494 1495 1496 1498 1499 1500 1503 1504 1515 1520 1509 1503 1495 1494 1497 1497 1497 1494 1497 1496 1496 1498 1501
1521 1520 1519 1518 1517 1516 1514 1512 1510 1509 1507 1506 1504 1501 1498 1496 1493 1490 1489 1488 1490 1492 1493 1494 1495 1496 1498 1498 1500 1501 1514 1506 1495 1495 1496 1494 1495 1496 1498 1495 1490 1495 1496 1499 1504
1520 1519 1518 1517 1515 1514 1512 1511 1509 1507 1505 1503 1501 1498 1496 1493 1490 1485 1486 1487 1489 1491 1492 1493 1493 1495 1496 1497 1496 1495 1499 1493 1490 1492 1493 1493 1494 1492 1492 1491 1490 1492 1496 1500 1503
1519 1517 1516 1514 1513 1511 1510 1508 1506 1504 1502 1500 1497 1496 1494 1492 1492 1485 1486 1486 1488 1489 1490 1491 1492 1494 1495 1494 1492 1495 1488 1490 1488 1490 1491 1491 1492 1488 1490 1488 1489 1491 1494 1494 1499
1518 1516 1515 1513 1511 1509 1507 1505 1503 1501 1499 1496 1494 1492 1491 1489 1485 1485 1484 1485 1486 1487 1488 1489 1491 1492 1492 1490 1490 1490 1487 1487 1488 1487 1486 1487 1486 1486 1478 1484 1488 1485 1487 1492 1496
1516 1514 1512 1511 1508 1506 1504 1502 1500 1498 1496 1493 1491 1490 1489 1490 1483 1483 1484 1485 1484 1485 1487 1489 1489 1490 1490 1488 1489 1485 1484 1483 1483 1483 1483 1484 1481 1479 1472 1481 1482 1483 1481 1485 1492
1514 1512 1510 1508 1506 1504 1502 1499 1497 1495 1493 1491 1488 1487 1487 1482 1482 1482 1483 1484 1485 1484 1484 1486 1487 1488 1488 1487 1486 1484 1485 1480 1477 1477 1479 1482 1477 1459 1473 1476 1476 1475 1477 1478 1482
1512 1510 1508 1506 1503 1501 1499 1496 1494 1492 1490 1489 1487 1486 1482 1480 1480 1481 1483 1482 1483 1483 1483 1484 1485 1486 1487 1487 1486 1488 1487 1489 1471 1472 1475 1482 1464 1459 1468 1470 1469 1468 1473 1474 1479
1511 1508 1506 1503 1501 1498 1496 1493 1489 1488 1488 1487 1487 1486 1480 1479 1480 1481 1481 1480 1479 1480 1480 1481 1483 1483 1485 1490 1497 1491 1495 1484 1479 1472 1477 1477 1460 1460 1463 1464 1464 1463 1467 1470 1473
1509 1506 1504 1501 1499 1496 1493 1489 1487 1486 1486 1486 1486 1489 1481 1481 1481 1479 1479 1476 1475 1475 1476 1477 1478 1479 1483 1492 1496 1493 1492 1483 1479 1473 1473 1473 1462 1461 1459 1459 1459 1457 1461 1465 1467
1507 1505 1502 1499 1497 1495 1491 1488 1490 1489 1487 1487 1486 1486 1485 1482 1479 1480 1476 1471 1472 1472 1473 1471 1475 1472 1479 1480 1481 1483 1484 1480 1472 1469 1472 1467 1462 1454 1456 1453 1453 1453 1458 1461 1463
1506 1503 1501 1498 1497 1495 1491 1491 1496 1496 1489 1480 1479 1486 1486 1482 1480 1479 1474 1474 1473 1473 1471 1472 1458 1467 1469 1472 1475 1477 1478 1470 1467 1467 1469 1464 1459 1452 1451 1445 1446 1448 1450 1456 1459
1505 1502 1499 1496 1495 1494 1492 1493 1494 1493 1493 1482 1483 1485 1486 1483 1481 1481 1477 1476 1474 1470 1470 1472 1457 1459 1458 1462 1466 1465 1467 1465 1466 1463 1459 1461 1456 1448 1442 1440 1437 1440 1442 1446 1451
1505 1501 1498 1496 1496 1494 1492 1491 1491 1491 1495 1484 1486 1489 1486 1481 1481 1482 1479 1479 1475 1469 1467 1460 1453 1453 1450 1451 1457 1458 1455 1456 1457 1459 1464 1453 1459 1442 1440 1434 1430 1433 1436 1439 1444
1505 1502 1500 1496 1498 1495 1494 1490 1490 1491 1518 1493 1496 1495 1493 1492 1491 1483 1481 1474 1472 1467 1467 1456 1457 1454 1448 1452 1449 1448 1449 1455 1454 1450 1454 1447 1459 1435 1436 1433 1425 1423 1426 1432 1436
1507 1504 1502 1500 1498 1495 1493 1491 1491 1497 1523 1500 1499 1496 1491 1491 1488 1483 1480 1476 1471 1467 1458 1454 1449 1445 1441 1443 1447 1450 1451 1449 1447 1446 1449 1437 1451 1442 1432 1427 1420 1417 1419 1421 1428
1508 1506 1503 1500 1496 1493 1492 1491 1506 1531 1506 1504 1499 1495 1492 1489 1484 1481 1479 1483 1485 1477 1462 1448 1432 1425 1431 1442 1442 1448 1455 1458 1448 1443 1440 1431 1443 1430 1418 1416 1415 1413 1411 1412 1417
1509 1508 1506 1502 1499 1494 1491 1496 1534 1515 1510 1506 1501 1496 1495 1492 1488 1483 1480 1482 1478 1477 1468 1465 1443 1425 1419 1427 1436 1440 1446 1451 1441 1445 1440 1429 1440 1421 1407 1408 1408 1407 1406 1406 1409
1511 1510 1508 1506 1502 1497 1495 1529 1534 1515 1509 1504 1500 1497 1495 1490 1490 1485 1483 1480 1478 1474 1476 1464 1446 1436 1427 1430 1433 1436 1440 1442 1444 1428 1436 1429 1418 1406 1406 1408 1408 1401 1396 1399 1398
1512 1511 1510 1509 1507 1503 1504 1514 1514 1510 1506 1503 1501 1496 1494 1490 1488 1486 1482 1478 1473 1470 1469 1463 1454 1428 1430 1427 1427 1424 1424 1435 1445 1441 1435 1424 1420 1424 1420 1417 1412 1403 1396 1389 1391
1513 1513 1516 1513 1510 1507 1524 1515 1512 1510 1506 1502 1497 1491 1488 1488 1488 1484 1481 1477 1472 1468 1465 1468 1463 1439 1430 1421 1419 1421 1425 1430 1429 1426 1428 1431 1431 1431 1426 1422 1411 1405 1400 1391 1388
1514 1518 1519 1515 1512 1514 1519 1515 1512 1508 1504 1501 1495 1490 1494 1488 1485 1486 1481 1476 1468 1468 1468 1466 1462 1451 1434 1421 1423 1422 1416 1428 1446 1441 1428 1433 1439 1433 1429 1424 1415 1402 1388 1380 1383
1517 1521 1522 1517 1529 1526 1518 1516 1513 1507 1504 1502 1499 1497 1494 1490 1489 1483 1478 1471 1468 1466 1468 1464 1460 1450 1426 1425 1419 1423 1417 1414 1416 1420 1422 1441 1446 1434 1429 1419 1413 1402 1375 1376 1377
1519 1527 1524 1522 1523 1524 1523 1520 1515 1508 1506 1504 1501 1497 1494 1488 1483 1480 1475 1471 1469 1467 1465 1464 1463 1459 1453 1449 1442 1437 1432 1420 1415 1426 1427 1445 1445 1443 1436 1428 1421 1407 1388 1387 1394
1521 1528 1531 1537 1527 1527 1524 1523 1518 1512 1507 1503 1498 1496 1494 1490 1483 1479 1477 1475 1471 1468 1466 1465 1462 1458 1454 1453 1439 1455 1455 1451 1452 1448 1452 1460 1452 1449 1444 1436 1435 1423 1408 1401 1402
1524 1528 1531 1531 1530 1528 1528 1525 1521 1515 1510 1503 1500 1491 1490 1487 1485 1480 1480 1478 1477 1472 1469 1466 1462 1456 1452 1439 1444 1457 1466 1459 1462 1471 1467 1466 1459 1460 1452 1448 1435 1430 1420 1415 1413
1527 1530 1531 1539 1535 1532 1534 1529 1524 1518 1509 1507 1500 1493 1487 1482 1480 1478 1481 1479 1477 1473 1469 1464 1461 1458 1445 1450 1439 1460 1494 1491 1494 1493 1485 1475 1474 1463 1459 1455 1441 1436 1430 1423 1421